Theta_e
282 281 281 282 281 281 281 281 283 284 285 285 288 288 288 288 288 289 289 288 289 289
280 281 281 281 281 281 281 283 284 284 284 285 286 288 288 288 288 288 289 289 289 289
280 281 281 281 281 281 281 282 283 284 284 284 285 287 288 288 289 288 289 289 289 290
281 281 281 281 281 281 282 282 283 284 284 286 286 286 286 286 287 286 287 288 287 287
281 281 280 280 281 281 281 282 283 283 284 284 284 284 285 285 285 285 285 286 286 286
280 280 279 280 280 281 281 281 282 283 282 282 282 282 283 284 285 285 286 286 286 286
279 280 279 280 280 280 281 280 281 281 281 281 280 281 281 283 284 285 286 285 284 285
279 279 279 279 279 280 281 281 281 281 280 280 280 281 283 284 286 284 283 282 282 283
275 275 275 278 277 279 280 280 280 279 279 278 280 282 284 286 284 283 279 279 279 280
271 273 273 276 276 276 280 282 282 281 278 276 275 282 284 286 283 281 278 278 278 280
270 272 273 276 277 279 282 281 281 279 274 272 274 282 283 284 283 280 277 277 277 280
270 272 274 275 276 281 280 281 281 281 274 270 270 279 282 283 282 280 277 277 277 278
270 272 275 274 277 280 278 280 281 280 277 269 268 277 282 281 281 279 279 277 278 281
270 273 275 276 278 271 278 280 279 275 269 267 268 271 281 282 278 277 278 276 277 277
Wind_Speed
6 4 4 3 3 3 3 4 5 5 5 6 8 7 7 6 7 8 8 11 9 8
5 5 5 5 3 3 4 5 6 5 6 6 6 8 8 7 8 8 9 9 10 9
6 6 5 3 4 5 5 5 5 6 5 6 6 8 8 7 8 8 8 8 10 10
6 6 5 4 5 5 4 5 5 6 6 7 7 7 7 8 9 10 9 9 10 12
7 6 5 5 5 4 5 5 5 5 6 6 6 6 8 9 9 10 11 11 11 12
7 7 6 6 5 4 5 5 5 5 5 5 6 7 8 9 10 10 11 11 11 11
9 8 7 6 5 4 4 4 5 5 5 5 6 6 7 8 10 11 8 7 9 10
8 6 6 5 4 4 4 4 5 4 4 5 4 4 7 8 7 7 8 8 8 8
7 6 6 5 4 4 4 4 5 4 5 5 5 11 13 13 5 7 7 9 8 8
7 8 7 6 5 4 4 3 4 5 5 5 4 11 13 15 3 6 7 7 7 8
8 8 7 7 6 5 4 4 4 3 5 4 4 12 12 14 6 5 6 6 7 8
10 9 8 8 7 6 4 5 6 7 5 3 5 11 12 11 6 8 7 7 6 6
10 10 11 8 7 8 4 6 5 8 4 4 4 10 11 8 3 8 8 6 6 11
9 10 9 7 6 4 5 6 6 5 4 5 3 6 8 8 1 3 5 6 6 7
Wind_Direction
200 198 212 227 237 259 268 275 277 276 271 269 274 276 274 269 267 266 262 262 259 261
204 200 212 224 239 260 268 276 265 269 277 276 278 276 273 267 265 264 265 265 266 264
202 204 207 213 240 248 260 260 269 265 268 272 273 276 274 275 275 275 275 271 270 271
195 198 202 216 232 236 254 264 270 274 278 283 288 284 286 284 284 280 283 282 282 281
183 186 202 220 228 239 253 266 271 276 280 287 286 294 295 290 285 282 281 282 281 278
187 188 206 212 215 232 247 261 272 274 284 287 291 301 301 296 291 285 277 274 276 283
194 193 198 201 207 232 249 266 272 278 281 285 288 297 291 287 284 282 289 314 292 294
189 179 185 197 213 235 248 262 270 275 286 280 300 285 299 300 305 317 306 299 288 287
178 170 184 181 214 231 246 251 271 271 282 285 309 308 317 318 317 304 292 291 285 283
178 179 187 174 211 215 227 236 253 278 291 287 295 317 315 320 278 299 281 278 298 299
180 183 180 185 203 210 212 227 245 260 276 273 294 317 308 308 301 300 288 295 290 302
184 180 184 192 199 206 221 230 250 263 268 270 287 312 305 311 316 325 314 301 292 309
179 184 193 186 195 217 191 240 253 267 255 257 270 300 302 325 337 331 330 319 308 328
183 193 192 177 197 183 201 236 248 268 281 263 226 287 307 344 335 301 323 317 322 325